| time (UTC) | temp F | wind direction | speed MPH | gust MPH | rain 1hr in | rain 24hr in | rain mn in | humidity % | barometer mb |
| 20260505030038 | 60 | 247 | 3.0 | 13.0 | 0.00 | 0.00 | 0.00 | 58 | 1010.0 |
| 20260505025534 | 61 | 235 | 3.0 | 13.0 | 0.00 | 0.00 | 0.00 | 57 | 1009.9 |
| 20260505025033 | 61 | 284 | 3.0 | 10.0 | 0.00 | 0.00 | 0.00 | 56 | 1010.0 |
| 20260505024529 | 61 | 244 | 4.0 | 22.0 | 0.00 | 0.00 | 0.00 | 56 | 1009.9 |
| 20260505024027 | 61 | 257 | 7.0 | 11.0 | 0.00 | 0.00 | 0.00 | 56 | 1009.9 |
| 20260505023523 | 61 | 234 | 9.0 | 13.0 | 0.00 | 0.00 | 0.00 | 55 | 1010.0 |
| 20260505023021 | 61 | 249 | 9.0 | 15.0 | 0.00 | 0.00 | 0.00 | 55 | 1010.0 |
| 20260505022519 | 62 | 265 | 2.0 | 13.0 | 0.00 | 0.00 | 0.00 | 55 | 1010.1 |
| 20260505022015 | 62 | 210 | 7.0 | 12.0 | 0.00 | 0.00 | 0.00 | 56 | 1009.9 |
| 20260505021512 | 62 | 228 | 7.0 | 11.0 | 0.00 | 0.00 | 0.00 | 56 | 1009.8 |
| 20260505021009 | 61 | 262 | 11.0 | 15.0 | 0.00 | 0.00 | 0.00 | 56 | 1009.8 |
| 20260505020503 | 60 | 198 | 4.0 | 7.0 | 0.00 | 0.00 | 0.00 | 60 | 1009.9 |
| 20260505020000 | 61 | 231 | 5.0 | 20.0 | 0.00 | 0.00 | 0.00 | 55 | 1009.9 |
| 20260505015458 | 60 | 201 | 14.0 | 14.0 | 0.00 | 0.00 | 0.00 | 60 | 1009.6 |
| 20260505014954 | 57 | 183 | 4.0 | 9.0 | 0.00 | 0.00 | 0.00 | 66 | 1009.8 |
| 20260505014452 | 60 | 188 | 7.0 | 11.0 | 0.00 | 0.00 | 0.00 | 66 | 1009.7 |
| 20260505013949 | 64 | 233 | 9.0 | 17.0 | 0.00 | 0.00 | 0.00 | 52 | 1009.5 |
| 20260505013446 | 63 | 231 | 7.0 | 14.0 | 0.00 | 0.00 | 0.00 | 52 | 1009.4 |
| 20260505012943 | 63 | 247 | 11.0 | 17.0 | 0.00 | 0.00 | 0.00 | 52 | 1009.4 |
| 20260505012441 | 64 | 235 | 9.0 | 15.0 | 0.00 | 0.00 | 0.00 | 51 | 1009.2 |
| 20260505011938 | 62 | 235 | 8.0 | 14.0 | 0.00 | 0.00 | 0.00 | 53 | 1009.2 |
| 20260505011433 | 63 | 231 | 7.0 | 11.0 | 0.00 | 0.00 | 0.00 | 52 | 1009.0 |
| 20260505010930 | 62 | 221 | 6.0 | 10.0 | 0.00 | 0.00 | 0.00 | 53 | 1008.9 |
| 20260505010421 | 61 | 242 | 9.0 | 12.0 | 0.00 | 0.00 | 0.00 | 55 | 1008.9 |
| 20260505005917 | 57 | 198 | 5.0 | 7.0 | 0.00 | 0.00 | 0.00 | 67 | 1008.6 |
| 20260505005414 | 57 | 52 | 2.0 | 4.0 | 0.00 | 0.00 | 0.00 | 70 | 1008.6 |
| 20260505004911 | 57 | 90 | 0.0 | 6.0 | 0.00 | 0.00 | 0.00 | 71 | 1008.6 |
| 20260505004408 | 57 | 140 | 0.0 | 4.0 | 0.00 | 0.00 | 0.00 | 69 | 1008.5 |
| 20260505003905 | 56 | 248 | 3.0 | 8.0 | 0.00 | 0.00 | 0.00 | 72 | 1008.5 |
| 20260505003401 | 56 | 168 | 2.0 | 13.0 | 0.00 | 0.00 | 0.00 | 71 | 1008.4 |
| 20260505002858 | 56 | 178 | 4.0 | 10.0 | 0.00 | 0.00 | 0.00 | 72 | 1008.3 |
| 20260505002354 | 62 | 212 | 8.0 | 13.0 | 0.00 | 0.00 | 0.00 | 58 | 1008.1 |
| 20260505001853 | 64 | 237 | 3.0 | 3.0 | 0.00 | 0.00 | 0.00 | 46 | 1008.0 |
| 20260505001349 | 64 | 239 | 2.0 | 3.0 | 0.00 | 0.00 | 0.00 | 47 | 1008.0 |
| 20260505000847 | 63 | 246 | 1.0 | 2.0 | 0.00 | 0.00 | 0.00 | 48 | 1007.9 |
| 20260505000345 | 64 | 278 | 0.0 | 2.0 | 0.00 | 0.00 | 0.00 | 46 | 1007.9 |
| 20260504235841 | 64 | 352 | 0.0 | 4.0 | 0.00 | 0.00 | 0.00 | 45 | 1007.7 |
| 20260504235338 | 64 | 260 | 2.0 | 2.0 | 0.00 | 0.00 | 0.00 | 46 | 1007.8 |
| 20260504234835 | 65 | 270 | 0.0 | 2.0 | 0.00 | 0.00 | 0.00 | 45 | 1007.6 |
| 20260504234332 | 65 | 249 | 0.0 | 2.0 | 0.00 | 0.00 | 0.00 | 44 | 1007.6 |
| 20260504233829 | 65 | 264 | 0.0 | 2.0 | 0.00 | 0.00 | 0.00 | 45 | 1007.4 |
| 20260504233325 | 66 | 237 | 2.0 | 4.0 | 0.00 | 0.00 | 0.00 | 44 | 1007.4 |
| 20260504232822 | 66 | 294 | 2.0 | 4.0 | 0.00 | 0.00 | 0.00 | 43 | 1007.4 |
| 20260504232319 | 67 | 292 | 2.0 | 3.0 | 0.00 | 0.00 | 0.00 | 43 | 1007.2 |
| 20260504231815 | 68 | 300 | 3.0 | 6.0 | 0.00 | 0.00 | 0.00 | 42 | 1007.3 |
| 20260504231312 | 68 | 299 | 2.0 | 5.0 | 0.00 | 0.00 | 0.00 | 40 | 1007.1 |
| 20260504230808 | 67 | 249 | 5.0 | 7.0 | 0.00 | 0.00 | 0.00 | 42 | 1007.1 |
| 20260504230306 | 68 | 216 | 3.0 | 6.0 | 0.00 | 0.00 | 0.00 | 43 | 1007.1 |
| 20260504225805 | 68 | 258 | 3.0 | 4.0 | 0.00 | 0.00 | 0.00 | 41 | 1006.9 |
| 20260504225301 | 68 | 266 | 3.0 | 4.0 | 0.00 | 0.00 | 0.00 | 41 | 1006.9 |
| 20260504224758 | 68 | 301 | 2.0 | 5.0 | 0.00 | 0.00 | 0.00 | 42 | 1007.1 |
| 20260504224255 | 69 | 261 | 4.0 | 5.0 | 0.00 | 0.00 | 0.00 | 41 | 1006.9 |
| 20260504223751 | 69 | 270 | 2.0 | 3.0 | 0.00 | 0.00 | 0.00 | 41 | 1007.0 |
| 20260504223247 | 69 | 262 | 3.0 | 3.0 | 0.00 | 0.00 | 0.00 | 40 | 1006.7 |
| 20260504222744 | 69 | 294 | 2.0 | 7.0 | 0.00 | 0.00 | 0.00 | 37 | 1006.9 |
| 20260504222241 | 70 | 255 | 4.0 | 4.0 | 0.00 | 0.00 | 0.00 | 37 | 1006.9 |
| 20260504221739 | 70 | 317 | 8.0 | 8.0 | 0.00 | 0.00 | 0.00 | 37 | 1006.9 |
| 20260504221236 | 70 | 304 | 4.0 | 7.0 | 0.00 | 0.00 | 0.00 | 37 | 1006.7 |
| 20260504220732 | 70 | 259 | 7.0 | 9.0 | 0.00 | 0.00 | 0.00 | 36 | 1007.1 |
| 20260504220229 | 70 | 311 | 3.0 | 9.0 | 0.00 | 0.00 | 0.00 | 35 | 1006.9 |
| 20260504215726 | 70 | 312 | 4.0 | 9.0 | 0.00 | 0.00 | 0.00 | 36 | 1006.8 |
| 20260504215223 | 70 | 317 | 6.0 | 7.0 | 0.00 | 0.00 | 0.00 | 37 | 1006.7 |
| 20260504214713 | 70 | 195 | 2.0 | 4.0 | 0.00 | 0.00 | 0.00 | 38 | 1006.8 |
| 20260504214210 | 70 | 324 | 3.0 | 11.0 | 0.00 | 0.00 | 0.00 | 36 | 1006.7 |
| 20260504213707 | 71 | 264 | 3.0 | 8.0 | 0.00 | 0.00 | 0.00 | 37 | 1006.6 |
| 20260504213203 | 71 | 321 | 5.0 | 8.0 | 0.00 | 0.00 | 0.00 | 35 | 1006.8 |
| 20260504212700 | 71 | 260 | 4.0 | 15.0 | 0.00 | 0.00 | 0.00 | 36 | 1006.8 |
| 20260504212157 | 73 | 276 | 3.0 | 11.0 | 0.00 | 0.00 | 0.00 | 34 | 1006.8 |
| 20260504211654 | 73 | 279 | 0.0 | 8.0 | 0.00 | 0.00 | 0.00 | 33 | 1006.8 |
| 20260504211150 | 73 | 328 | 5.0 | 7.0 | 0.00 | 0.00 | 0.00 | 33 | 1006.7 |
| 20260504210648 | 74 | 321 | 7.0 | 11.0 | 0.00 | 0.00 | 0.00 | 33 | 1006.6 |
| 20260504210144 | 74 | 41 | 4.0 | 7.0 | 0.00 | 0.00 | 0.00 | 33 | 1006.6 |
| 20260504205642 | 74 | 308 | 4.0 | 11.0 | 0.00 | 0.00 | 0.00 | 33 | 1006.6 |
| 20260504205139 | 73 | 313 | 3.0 | 8.0 | 0.00 | 0.00 | 0.00 | 33 | 1006.5 |
| 20260504204637 | 73 | 305 | 6.0 | 10.0 | 0.00 | 0.00 | 0.00 | 34 | 1006.6 |
| 20260504204136 | 71 | 315 | 11.0 | 14.0 | 0.00 | 0.00 | 0.00 | 34 | 1006.5 |
| 20260504203634 | 71 | 253 | 7.0 | 12.0 | 0.00 | 0.00 | 0.00 | 35 | 1006.6 |
| 20260504203132 | 72 | 311 | 5.0 | 8.0 | 0.00 | 0.00 | 0.00 | 34 | 1006.6 |
| 20260504202631 | 71 | 307 | 6.0 | 13.0 | 0.00 | 0.00 | 0.00 | 34 | 1006.7 |
| 20260504202129 | 70 | 255 | 1.0 | 5.0 | 0.00 | 0.00 | 0.00 | 37 | 1006.8 |
| 20260504201625 | 71 | 306 | 7.0 | 10.0 | 0.00 | 0.00 | 0.00 | 34 | 1006.7 |
| 20260504201123 | 70 | 323 | 0.0 | 6.0 | 0.00 | 0.00 | 0.00 | 34 | 1006.8 |
| 20260504200620 | 71 | 315 | 6.0 | 13.0 | 0.00 | 0.00 | 0.00 | 34 | 1006.9 |
| 20260504200116 | 71 | 246 | 10.0 | 15.0 | 0.00 | 0.00 | 0.00 | 33 | 1006.8 |
| 20260504195613 | 72 | 320 | 3.0 | 12.0 | 0.00 | 0.00 | 0.00 | 32 | 1006.6 |
| 20260504195109 | 71 | 238 | 4.0 | 9.0 | 0.00 | 0.00 | 0.00 | 34 | 1006.8 |
| 20260504194606 | 71 | 263 | 5.0 | 16.0 | 0.00 | 0.00 | 0.00 | 34 | 1006.9 |
| 20260504194101 | 71 | 322 | 6.0 | 19.0 | 0.00 | 0.00 | 0.00 | 33 | 1006.8 |
| 20260504193558 | 72 | 318 | 8.0 | 9.0 | 0.00 | 0.00 | 0.00 | 32 | 1006.8 |
| 20260504193056 | 72 | 282 | 0.0 | 9.0 | 0.00 | 0.00 | 0.00 | 32 | 1006.8 |
| 20260504192554 | 71 | 260 | 7.0 | 7.0 | 0.00 | 0.00 | 0.00 | 34 | 1006.8 |
| 20260504192052 | 71 | 338 | 2.0 | 8.0 | 0.00 | 0.00 | 0.00 | 33 | 1006.8 |
| 20260504191550 | 71 | 196 | 9.0 | 10.0 | 0.00 | 0.00 | 0.00 | 33 | 1006.9 |
| 20260504191046 | 70 | 296 | 4.0 | 9.0 | 0.00 | 0.00 | 0.00 | 34 | 1007.0 |
| 20260504190542 | 70 | 321 | 4.0 | 15.0 | 0.00 | 0.00 | 0.00 | 33 | 1007.0 |
| 20260504190038 | 69 | 314 | 12.0 | 22.0 | 0.00 | 0.00 | 0.00 | 35 | 1007.0 |
| 20260504185536 | 72 | 224 | 8.0 | 17.0 | 0.00 | 0.00 | 0.00 | 33 | 1007.3 |
| 20260504185032 | 73 | 270 | 6.0 | 12.0 | 0.00 | 0.00 | 0.00 | 34 | 1007.0 |
| 20260504184528 | 71 | 319 | 5.0 | 13.0 | 0.00 | 0.00 | 0.00 | 34 | 1006.8 |
| 20260504184023 | 72 | 295 | 2.0 | 13.0 | 0.00 | 0.00 | 0.00 | 32 | 1006.8 |
| 20260504183521 | 71 | 279 | 0.0 | 8.0 | 0.00 | 0.00 | 0.00 | 34 | 1007.1 |
| 20260504183019 | 70 | 242 | 5.0 | 17.0 | 0.00 | 0.00 | 0.00 | 34 | 1006.9 |
| 20260504182515 | 72 | 237 | 9.0 | 11.0 | 0.00 | 0.00 | 0.00 | 34 | 1007.1 |
| 20260504182013 | 71 | 252 | 15.0 | 15.0 | 0.00 | 0.00 | 0.00 | 34 | 1007.0 |
| 20260504181509 | 70 | 240 | 5.0 | 22.0 | 0.00 | 0.00 | 0.00 | 35 | 1007.0 |
| 20260504181008 | 70 | 232 | 7.0 | 21.0 | 0.00 | 0.00 | 0.00 | 34 | 1007.0 |
| 20260504180506 | 71 | 270 | 2.0 | 9.0 | 0.00 | 0.00 | 0.00 | 35 | 1007.1 |
| 20260504180005 | 70 | 315 | 3.0 | 13.0 | 0.00 | 0.00 | 0.00 | 38 | 1007.1 |
| 20260504175502 | 71 | 233 | 3.0 | 12.0 | 0.00 | 0.00 | 0.00 | 38 | 1007.1 |
| 20260504174959 | 71 | 255 | 7.0 | 10.0 | 0.00 | 0.00 | 0.00 | 35 | 1007.2 |
| 20260504174456 | 71 | 242 | 6.0 | 11.0 | 0.00 | 0.00 | 0.00 | 36 | 1007.1 |
| 20260504173953 | 70 | 255 | 13.0 | 14.0 | 0.00 | 0.00 | 0.00 | 35 | 1007.3 |
| 20260504173450 | 70 | 249 | 10.0 | 14.0 | 0.00 | 0.00 | 0.00 | 35 | 1007.5 |
| 20260504172947 | 70 | 240 | 4.0 | 10.0 | 0.00 | 0.00 | 0.00 | 37 | 1007.4 |
| 20260504172443 | 69 | 240 | 5.0 | 15.0 | 0.00 | 0.00 | 0.00 | 38 | 1007.3 |
| 20260504171940 | 69 | 143 | 2.0 | 21.0 | 0.00 | 0.00 | 0.00 | 38 | 1007.4 |
| 20260504171437 | 68 | 244 | 11.0 | 25.0 | 0.00 | 0.00 | 0.00 | 36 | 1007.2 |
| 20260504170934 | 69 | 243 | 8.0 | 15.0 | 0.00 | 0.00 | 0.00 | 37 | 1007.3 |
| 20260504170430 | 69 | 292 | 2.0 | 14.0 | 0.00 | 0.00 | 0.00 | 37 | 1007.5 |
| 20260504160349 | 67 | 244 | 4.0 | 16.0 | 0.00 | 0.00 | 0.00 | 40 | 1007.5 |
| 20260504150814 | 67 | 256 | 6.0 | 10.0 | 0.00 | 0.00 | 0.00 | 39 | 1008.1 |
| 20260504150311 | 66 | 297 | 3.0 | 5.0 | 0.00 | 0.00 | 0.00 | 41 | 1008.3 |
| 20260504141241 | 64 | 275 | 2.0 | 9.0 | 0.00 | 0.00 | 0.00 | 45 | 1009.0 |
| 20260504140737 | 64 | 311 | 5.0 | 6.0 | 0.00 | 0.00 | 0.00 | 44 | 1009.0 |
| 20260504140233 | 63 | 250 | 4.0 | 7.0 | 0.00 | 0.00 | 0.00 | 46 | 1009.1 |
| 20260504130702 | 59 | 319 | 4.0 | 7.0 | 0.00 | 0.00 | 0.00 | 50 | 1009.7 |
| 20260504130157 | 58 | 248 | 5.0 | 8.0 | 0.00 | 0.00 | 0.00 | 50 | 1009.8 |
| 20260504120122 | 51 | 257 | 1.0 | 5.0 | 0.00 | 0.00 | 0.00 | 62 | 1010.3 |
| 20260504110549 | 49 | 266 | 3.0 | 4.0 | 0.00 | 0.00 | 0.00 | 66 | 1010.3 |
| 20260504100511 | 45 | 283 | 1.0 | 4.0 | 0.00 | 0.00 | 0.00 | 69 | 1010.0 |
| 20260504081904 | 46 | 247 | 2.0 | 5.0 | 0.00 | 0.00 | 0.00 | 64 | 1009.8 |
| 20260504081400 | 45 | 270 | 2.0 | 3.0 | 0.00 | 0.00 | 0.00 | 64 | 1009.9 |
| 20260504080856 | 45 | 318 | 3.0 | 5.0 | 0.00 | 0.00 | 0.00 | 64 | 1009.8 |
| 20260504080354 | 45 | 310 | 2.0 | 4.0 | 0.00 | 0.00 | 0.00 | 65 | 1009.7 |
| 20260504070321 | 44 | 277 | 0.0 | 3.0 | 0.00 | 0.00 | 0.00 | 65 | 1009.8 |
| 20260504060241 | 42 | 275 | 2.0 | 3.0 | 0.00 | 0.00 | 0.00 | 68 | 1009.9 |
| 20260504050703 | 41 | 285 | 0.0 | 2.0 | 0.00 | 0.00 | 0.00 | 73 | 1010.0 |
| 20260504050200 | 41 | 340 | 1.0 | 2.0 | 0.00 | 0.00 | 0.00 | 72 | 1010.0 |
| 20260504045657 | 41 | 297 | 2.0 | 2.0 | 0.00 | 0.00 | 0.00 | 72 | 1010.1 |
| 20260504045152 | 42 | 286 | 2.0 | 2.0 | 0.00 | 0.00 | 0.00 | 72 | 1010.0 |
| 20260504044650 | 42 | 283 | 2.0 | 3.0 | 0.00 | 0.00 | 0.00 | 70 | 1010.1 |
| 20260504044147 | 42 | 294 | 0.0 | 3.0 | 0.00 | 0.00 | 0.00 | 69 | 1009.9 |
| 20260504043644 | 42 | 299 | 0.0 | 3.0 | 0.00 | 0.00 | 0.00 | 69 | 1010.1 |
| 20260504043141 | 42 | 324 | 2.0 | 3.0 | 0.00 | 0.00 | 0.00 | 69 | 1010.0 |
| 20260504042638 | 43 | 334 | 0.0 | 3.0 | 0.00 | 0.00 | 0.00 | 67 | 1010.2 |
| 20260504042135 | 43 | 278 | 1.0 | 4.0 | 0.00 | 0.00 | 0.00 | 66 | 1010.0 |
| 20260504041630 | 43 | 297 | 2.0 | 4.0 | 0.00 | 0.00 | 0.00 | 66 | 1010.3 |
| 20260504041127 | 43 | 334 | 2.0 | 3.0 | 0.00 | 0.00 | 0.00 | 66 | 1010.0 |
| 20260504040624 | 43 | 285 | 1.0 | 3.0 | 0.00 | 0.00 | 0.00 | 67 | 1009.9 |
| 20260504040121 | 43 | 279 | 2.0 | 4.0 | 0.00 | 0.00 | 0.00 | 66 | 1010.1 |
| 20260504035618 | 43 | 315 | 2.0 | 3.0 | 0.00 | 0.00 | 0.00 | 65 | 1009.9 |
| 20260504035114 | 43 | 276 | 2.0 | 4.0 | 0.00 | 0.00 | 0.00 | 65 | 1009.8 |
| 20260504034612 | 43 | 337 | 3.0 | 4.0 | 0.00 | 0.00 | 0.00 | 67 | 1010.1 |
| 20260504034109 | 43 | 305 | 4.0 | 4.0 | 0.00 | 0.00 | 0.00 | 71 | 1009.9 |
| 20260504033607 | 43 | 308 | 2.0 | 4.0 | 0.00 | 0.00 | 0.00 | 69 | 1009.9 |
| 20260504033104 | 43 | 301 | 0.0 | 3.0 | 0.00 | 0.00 | 0.00 | 70 | 1009.8 |
| 20260504032601 | 43 | 261 | 2.0 | 3.0 | 0.00 | 0.00 | 0.00 | 70 | 1010.0 |
| 20260504032058 | 43 | 195 | 0.0 | 4.0 | 0.00 | 0.00 | 0.00 | 68 | 1009.9 |
| 20260504031554 | 43 | 229 | 1.0 | 2.0 | 0.00 | 0.00 | 0.00 | 69 | 1009.7 |
| 20260504031050 | 44 | 265 | 2.0 | 2.0 | 0.00 | 0.00 | 0.00 | 67 | 1009.8 |
| 20260504030548 | 44 | 270 | 1.0 | 2.0 | 0.00 | 0.00 | 0.00 | 66 | 1009.7 |